Weather History for Mineral Point, WI

Change the Weather History Date:

Sunday, May 25, 2014

  Actual Average (KLNR) Record (KLNR)
Temperature  
Mean Temperature 68 °F -  
Max Temperature 82 °F 68 °F 82 °F (2014)
Min Temperature 53 °F 47 °F 39 °F (2002)
Cooling Degree Days 2    
Growing Degree Days 18 (Base 50)    
Moisture  
Dew Point 46 °F    
Average Humidity 44    
Maximum Humidity 72    
Minimum Humidity 24    
Precipitation  
Precipitation 0.00 in - - ()
Sea Level Pressure  
Sea Level Pressure 30.08 in    
Wind  
Wind Speed 7 mph (SSE)    
Max Wind Speed 14 mph    
Max Gust Speed 21 mph    
Visibility 10 miles    
Events      
Averages and records for this station are not official NWS values.
T = Trace of Precipitation, MM = Missing Value Source: NWS Daily Summary

Daily Weather History Graph

Daily Weather History Graph

Search for Another Location

Airport:

Trip Planner

Search our weather history database for the weather conditions in past years. The results will help you decide how hot, cold, wet, or windy it might be!

Date:

Astronomy

May. 25, 2014 Rise Set
Actual Time 5:29 AM CDT 8:27 PM CDT
Civil Twilight 4:55 AM CDT 9:00 PM CDT
Nautical Twilight 4:12 AM CDT 9:43 PM CDT
Astronomical Twilight 3:22 AM CDT 10:34 PM CDT
Moon 3:38 AM CDT (5/25) 5:23 PM CDT (5/25)
Length of Visible Light 16h 05m
Length of Day
14h 57m
Waning Crescent, 10% of the Moon is Illuminated
May 25
Waning Crescent
May 28
New
Jun 5
First Quarter
Jun 12
Full
Jun 19
Last Quarter

Hourly Weather History & Observations

Time (CDT) Temp. Dew Point Humidity Pressure Visibility Wind Dir Wind Speed Gust Speed Precip Events Conditions
12:10 AM 60.8 °F 39.2 °F 45% 30.13 in 10.0 mi SE 4.6 mph - N/A   Clear
12:30 AM 59.0 °F 39.2 °F 48% 30.13 in 10.0 mi SE 4.6 mph - N/A   Clear
12:50 AM 60.8 °F 37.4 °F 42% 30.13 in 10.0 mi SE 4.6 mph - N/A   Clear
1:10 AM 59.0 °F 41.0 °F 51% 30.13 in 10.0 mi SE 5.8 mph - N/A   Clear
1:30 AM 59.0 °F 41.0 °F 51% 30.13 in 10.0 mi SE 4.6 mph - N/A   Clear
1:50 AM 59.0 °F 41.0 °F 51% 30.13 in 10.0 mi SE 4.6 mph - N/A   Clear
2:10 AM 59.0 °F 41.0 °F 51% 30.13 in 10.0 mi SE 5.8 mph - N/A   Clear
2:30 AM 59.0 °F 42.8 °F 55% 30.13 in 10.0 mi SE 5.8 mph - N/A   Clear
2:55 AM 57.2 °F 42.8 °F 59% 30.13 in 10.0 mi ESE 5.8 mph - N/A   Clear
3:10 AM 55.4 °F 42.8 °F 63% 30.13 in 10.0 mi ESE 5.8 mph - N/A   Clear
3:30 AM 55.4 °F 42.8 °F 63% 30.13 in 10.0 mi ESE 6.9 mph - N/A   Clear
3:50 AM 55.4 °F 44.6 °F 67% 30.13 in 10.0 mi SE 6.9 mph - N/A   Clear
4:10 AM 55.4 °F 44.6 °F 67% 30.12 in 10.0 mi SE 6.9 mph - N/A   Clear
4:30 AM 55.4 °F 44.6 °F 67% 30.12 in 10.0 mi SE 6.9 mph - N/A   Clear
4:50 AM 53.6 °F 44.6 °F 72% 30.12 in 10.0 mi SE 6.9 mph - N/A   Clear
5:10 AM 53.6 °F 44.6 °F 72% 30.12 in 10.0 mi SE 6.9 mph - N/A   Clear
5:30 AM 53.6 °F 44.6 °F 72% 30.13 in 10.0 mi SE 5.8 mph - N/A   Clear
5:50 AM 53.6 °F 44.6 °F 72% 30.13 in 10.0 mi SE 5.8 mph - N/A   Clear
6:10 AM 53.6 °F 44.6 °F 72% 30.13 in 10.0 mi SE 5.8 mph - N/A   Clear
6:30 AM 55.4 °F 44.6 °F 67% 30.14 in 10.0 mi SE 5.8 mph - N/A   Clear
6:50 AM 57.2 °F 46.4 °F 67% 30.13 in 10.0 mi ESE 6.9 mph - N/A   Clear
7:15 AM 59.0 °F 46.4 °F 63% 30.13 in 10.0 mi ESE 6.9 mph - N/A   Clear
7:30 AM 60.8 °F 46.4 °F 59% 30.13 in 10.0 mi SE 6.9 mph - N/A   Clear
7:50 AM 62.6 °F 46.4 °F 55% 30.13 in 10.0 mi SE 6.9 mph - N/A   Clear
8:10 AM 62.6 °F 46.4 °F 55% 30.13 in 10.0 mi SE 6.9 mph - N/A   Clear
8:30 AM 66.2 °F 46.4 °F 49% 30.12 in 10.0 mi SE 6.9 mph - N/A   Clear
8:50 AM 68.0 °F 46.4 °F 46% 30.12 in 10.0 mi SE 6.9 mph - N/A   Clear
9:50 AM 71.6 °F 46.4 °F 41% 30.13 in 10.0 mi SSE 8.1 mph - N/A   Clear
10:10 AM 73.4 °F 48.2 °F 41% 30.12 in 10.0 mi South 5.8 mph - N/A   Clear
10:30 AM 73.4 °F 46.4 °F 38% 30.12 in 10.0 mi South 5.8 mph - N/A   Clear
10:50 AM 77.0 °F 46.4 °F 34% 30.12 in 10.0 mi SSE 5.8 mph - N/A   Clear
11:10 AM 77.0 °F 44.6 °F 32% 30.11 in 10.0 mi South 11.5 mph - N/A   Clear
11:50 AM 78.8 °F 42.8 °F 28% 30.11 in 10.0 mi South 13.8 mph 20.7 mph N/A   Clear
12:10 PM 78.8 °F 42.8 °F 28% 30.10 in 10.0 mi South 6.9 mph 16.1 mph N/A   Clear
12:30 PM 78.8 °F 42.8 °F 28% 30.10 in 10.0 mi SSW 12.7 mph 17.3 mph N/A   Clear
12:50 PM 78.8 °F 44.6 °F 30% 30.10 in 10.0 mi SSE 6.9 mph - N/A   Clear
1:10 PM 80.6 °F 42.8 °F 26% 30.09 in 10.0 mi South 10.4 mph - N/A   Clear
1:30 PM 80.6 °F 42.8 °F 26% 30.08 in 10.0 mi South 10.4 mph 17.3 mph N/A   Clear
1:50 PM 80.6 °F 41.0 °F 24% 30.08 in 10.0 mi South 12.7 mph 17.3 mph N/A   Clear
2:10 PM 80.6 °F 42.8 °F 26% 30.07 in 10.0 mi SSW 8.1 mph 17.3 mph N/A   Clear
2:30 PM 80.6 °F 44.6 °F 28% 30.07 in 10.0 mi South 8.1 mph - N/A   Clear
2:55 PM 80.6 °F 46.4 °F 30% 30.06 in 10.0 mi South 10.4 mph - N/A   Clear
3:10 PM 80.6 °F 44.6 °F 28% 30.05 in 10.0 mi South 12.7 mph 16.1 mph N/A   Clear
3:30 PM 82.4 °F 44.6 °F 26% 30.04 in 10.0 mi SSE 9.2 mph - N/A   Clear
3:50 PM 82.4 °F 44.6 °F 26% 30.03 in 10.0 mi SSE 11.5 mph 17.3 mph N/A   Clear
4:10 PM 82.4 °F 44.6 °F 26% 30.02 in 10.0 mi SSW 9.2 mph - N/A   Clear
4:30 PM 82.4 °F 46.4 °F 28% 30.01 in 10.0 mi South 10.4 mph - N/A   Clear
4:50 PM 82.4 °F 44.6 °F 26% 30.01 in 10.0 mi South 9.2 mph - N/A   Clear
5:10 PM 82.4 °F 46.4 °F 28% 30.00 in 10.0 mi SSW 9.2 mph - N/A   Clear
5:30 PM 80.6 °F 44.6 °F 28% 30.00 in 10.0 mi South 8.1 mph - N/A   Scattered Clouds
5:50 PM 82.4 °F 44.6 °F 26% 30.00 in 10.0 mi SSW 9.2 mph - N/A   Mostly Cloudy
6:15 PM 78.8 °F 48.2 °F 34% 29.99 in 10.0 mi SSW 11.5 mph - N/A   Overcast
6:30 PM 78.8 °F 48.2 °F 34% 29.99 in 10.0 mi SW 10.4 mph - N/A   Overcast
6:50 PM 78.8 °F 50.0 °F 36% 29.99 in 10.0 mi SSW 6.9 mph - N/A   Overcast
7:10 PM 78.8 °F 50.0 °F 36% 30.00 in 10.0 mi SSW 8.1 mph - N/A   Overcast
7:30 PM 77.0 °F 50.0 °F 39% 30.00 in 10.0 mi SSW 9.2 mph - N/A   Overcast
7:50 PM 77.0 °F 48.2 °F 36% 30.00 in 10.0 mi SSW 8.1 mph - N/A   Overcast
8:15 PM 77.0 °F 46.4 °F 34% 30.00 in 10.0 mi SSW 9.2 mph - N/A   Overcast
8:30 PM 77.0 °F 46.4 °F 34% 30.01 in 10.0 mi SW 6.9 mph - N/A   Overcast
9:10 PM 73.4 °F 50.0 °F 44% 30.02 in 10.0 mi SSW 4.6 mph - N/A   Overcast
9:30 PM 73.4 °F 50.0 °F 44% 30.02 in 10.0 mi SSW 5.8 mph - N/A   Overcast
9:50 PM 73.4 °F 51.8 °F 47% 30.03 in 10.0 mi SSW 4.6 mph - N/A   Mostly Cloudy
10:10 PM 73.4 °F 51.8 °F 47% 30.03 in 10.0 mi SSW 3.5 mph - N/A   Overcast
10:30 PM 73.4 °F 51.8 °F 47% 30.03 in 10.0 mi South 3.5 mph - N/A   Overcast
10:50 PM 73.4 °F 51.8 °F 47% 30.02 in 10.0 mi South 3.5 mph - N/A   Overcast
11:10 PM 71.6 °F 51.8 °F 50% 30.02 in 10.0 mi South 4.6 mph - N/A   Overcast
11:30 PM 71.6 °F 51.8 °F 50% 30.02 in 10.0 mi South 3.5 mph - N/A   Overcast
11:50 PM 71.6 °F 53.6 °F 53% 30.02 in 10.0 mi South 3.5 mph - N/A   Overcast